Погода в Высоком

Россия / Тверская область     56°41′51″N   34°53′54″E
темп.,
°C
ветер,
м/с
пор.,
м/с
влажн.,
%
обл.,
%
осадки,
мм/ч
давл.,
гПа
погр.,
м
11 мая, вт
вт1100:00+6юв117017 0.0 102810
03:00+5вюв117495 0.0 102910
06:00+6вюв11758 0.0 102927
09:00+12в2351100 0.0 1029449
12:00+16в343797 0.0 1028982
15:00+19в34345 0.0 10271153
18:00+18в35465 0.0 1026917
21:00+11всв267228 0.0 102789
12 мая, ср
ср1200:00+9вюв27840 0.0 1027132
03:00+9в11940 0.0 102710
06:00+10в139419 0.0 102787
09:00+16юв247425 0.0 1027599
12:00+20вюв24535 0.0 10251292
15:00+20в4760100 1.0 10231371
18:00+18в41078100 2.2 1020717
21:00+15в51284100 3.8 1019620
13 мая, чт
чт1300:00+13вюв41096100 0.9 1018809
03:00+9ююв389719 1.2 1020308
06:00+8вюв279720 0.0 1020272
09:00+12вюв36725 0.0 1020617
12:00+17вюв475150 0.0 10181518
15:00+17вюв3660100 0.1 10151185
18:00+13вюв259097 0.8 1015258
21:00+10юв25970 2.0 1015107
14 мая, пт
пт1400:00+9ююв229792 0.3 101635
03:00+8ююв22967 0.3 101621
06:00+9юв2495100 0.0 1016108
09:00+13юв358184 0.0 1016423
12:00+18юв4755100 0.0 10151164
15:00+17в267731 0.6 1014476
18:00+17вюв41087100 2.8 1012515
21:00+14вюв3997100 5.7 1010348
15 мая, сб
сб1500:00+14вюв389982 2.3 1009270
03:00+12ююв2399100 2.4 100983
06:00+13ююв269799 0.0 1009172
09:00+17ююв358598 0.0 1008417
12:00+18юв4785100 2.3 1008620
15:00+20ююв357292 4.3 1006915
18:00+17ююз2685100 4.4 1005153
21:00+14ююз2489100 5.3 100487